Location: Newark
(49.3000°N, 9.4667°E)
Time: 12:49:04
(UTC+00:00)

S-56A Canister/Altair - Visible Passes

Search period start: 22 October 2020 00:00
Search period end: 01 November 2020 00:00
Orbit: 632 x 2500 km, 38.9° (Epoch: 21 October)

Date Brightness Start Highest point End Pass type
(mag) Time Alt. Az. Time Alt. Az. Time Alt. Az.
24 Oct 10.5 05:16:35 10° S 05:21:15 19° SE 05:27:09 10° E visible
25 Oct 10.5 04:45:03 10° S 04:48:44 15° SE 04:53:07 10° ESE visible
26 Oct 10.6 04:14:03 10° SSE 04:16:14 12° SE 04:18:41 10° ESE visible
28 Oct 10.0 05:08:14 10° SSW 05:13:13 26° SSE 05:19:54 10° E visible
29 Oct 10.0 04:36:16 10° SSW 04:40:40 22° SSE 04:46:21 10° ESE visible
30 Oct 9.9 04:04:25 10° S 04:08:10 18° SSE 04:12:47 10° ESE visible
31 Oct 9.9 03:32:45 10° S 03:35:42 15° SE 03:39:09 10° ESE visible
31 Oct 9.6 05:32:55 10° SW 05:38:12 34° SSE 05:45:38 10° ESE visible
